Ord, NE

6:43 PM CDT on August 28, 2016 (GMT -0500)
Sharp

Weather History for KODX - March, 2013

Change the Weather History Date:

Monday, March 18, 2013

  Actual Average Record
Temperature  
Mean Temperature 33 °F 39 °F  
Max Temperature 40 °F 52 °F 82 °F (2012)
Min Temperature 25 °F 25 °F 18 °F (2016)
Degree Days  
Heating Degree Days 32 26  
Month to date heating degree days 563 538  
Since 1 July heating degree days 5532 5555  
Cooling Degree Days 0 0  
Month to date cooling degree days 0 0  
Year to date cooling degree days 0 0  
Moisture  
Dew Point 17 °F    
Average Humidity 58    
Maximum Humidity 89    
Minimum Humidity 27    
Precipitation  
Precipitation 0.00 in 0.05 in 1.59 in (1987)
Month to date precipitation 0.28 0.48  
Year to date precipitation 1.90 1.29  
Sea Level Pressure  
Sea Level Pressure 29.93 in    
Wind  
Wind Speed 16 mph (NW)    
Max Wind Speed 35 mph    
Max Gust Speed 41 mph    
Visibility 10 miles    
Events      
T = Trace of Precipitation, MM = Missing Value Source: NWS Daily Summary

Daily Weather History Graph

Daily Weather History Graph

Search for Another Location

Airport or City:

Trip Planner

Search our weather history database for the weather conditions in past years. The results will help you decide how hot, cold, wet, or windy it might be!

Date:

Astronomy

Mar. 18, 2013 Rise Set
Actual Time 7:42 AM CDT 7:46 PM CDT
Civil Twilight 7:14 AM CDT 8:13 PM CDT
Nautical Twilight 6:42 AM CDT 8:46 PM CDT
Astronomical Twilight 6:09 AM CDT 9:19 PM CDT
Moon 11:38 AM CDT (3/18) 1:51 AM CDT (3/18)
Length of Visible Light 12h 59m
Length of Day
12h 04m
Waxing Crescent, 41% of the Moon is Illuminated
Mar 18
Waxing Crescent
Mar 19
First Quarter
Mar 27
Full
Apr 2
Last Quarter
Apr 10
New

Hourly Weather History & Observations

Time (CDT) Temp. Windchill Dew Point Humidity Pressure Visibility Wind Dir Wind Speed Gust Speed Precip Events Conditions
12:13 AM 35.6 °F 28.0 °F 32.0 °F 87% 29.71 in 9.0 mi WSW 10.4 mph - N/A   Overcast
12:53 AM 36.0 °F 26.3 °F 32.0 °F 86% 29.78 in 10.0 mi WNW 16.1 mph 25.3 mph N/A   Overcast
1:10 AM 35.6 °F 25.2 °F 30.2 °F 81% 29.73 in 10.0 mi NW 18.4 mph 31.1 mph N/A   Overcast
1:53 AM 34.0 °F 23.8 °F 28.0 °F 79% 29.81 in 10.0 mi NW 16.1 mph - N/A   Mostly Cloudy
2:53 AM 33.1 °F 24.4 °F 26.1 °F 75% 29.82 in 10.0 mi WNW 11.5 mph - N/A   Mostly Cloudy
3:53 AM 32.0 °F 21.2 °F 23.0 °F 69% 29.84 in 10.0 mi WNW 16.1 mph - N/A   Partly Cloudy
4:53 AM 30.9 °F 19.8 °F 21.0 °F 67% 29.85 in 10.0 mi NW 16.1 mph - N/A   Clear
5:53 AM 28.0 °F 16.5 °F 19.9 °F 72% 29.87 in 10.0 mi NW 15.0 mph 23.0 mph N/A   Clear
6:53 AM 27.0 °F 16.7 °F 17.1 °F 66% 29.88 in 10.0 mi NW 11.5 mph - N/A   Clear
7:53 AM 25.0 °F 14.2 °F 17.1 °F 72% 29.91 in 10.0 mi NW 11.5 mph - N/A   Clear
8:53 AM 26.1 °F 13.6 °F 17.1 °F 69% 29.93 in 10.0 mi NW 16.1 mph - N/A   Clear
9:53 AM 28.9 °F 16.9 °F 19.0 °F 67% 29.94 in 10.0 mi NNW 17.3 mph - N/A   Mostly Cloudy
10:53 AM 30.0 °F 16.3 °F 14.0 °F 51% 29.97 in 10.0 mi NW 24.2 mph 32.2 mph N/A   Mostly Cloudy
11:53 AM 34.0 °F 21.5 °F 14.0 °F 44% 29.97 in 10.0 mi NW 24.2 mph 36.8 mph N/A   Clear
12:53 PM 35.1 °F 23.0 °F 12.0 °F 39% 29.98 in 10.0 mi NNW 24.2 mph 34.5 mph N/A   Clear
1:53 PM 37.0 °F 24.9 °F 12.0 °F 36% 29.99 in 10.0 mi WNW 27.6 mph 36.8 mph N/A   Clear
2:53 PM 39.0 °F 27.8 °F 12.0 °F 33% 29.98 in 10.0 mi NW 26.5 mph 36.8 mph N/A   Clear
3:53 PM 39.0 °F 27.8 °F 10.0 °F 30% 29.97 in 10.0 mi WNW 26.5 mph 36.8 mph N/A   Clear
4:53 PM 39.9 °F 29.7 °F 9.0 °F 28% 29.99 in 10.0 mi NNW 23.0 mph 35.7 mph N/A   Clear
5:53 PM 39.0 °F 29.6 °F 8.1 °F 28% 30.00 in 10.0 mi NW 18.4 mph - N/A   Clear
6:53 PM 37.0 °F 27.0 °F 6.1 °F 28% 30.02 in 10.0 mi NW 18.4 mph 27.6 mph N/A   Clear
7:53 PM 32.0 °F 24.8 °F 8.1 °F 37% 30.03 in 10.0 mi North 8.1 mph - N/A   Clear
8:53 PM 28.0 °F 22.8 °F 10.0 °F 47% 30.07 in 10.0 mi NW 4.6 mph - N/A   Clear
9:53 PM 28.9 °F 25.2 °F 10.9 °F 47% 30.08 in 10.0 mi NW 3.5 mph - N/A   Scattered Clouds
10:53 PM 26.1 °F 20.5 °F 15.1 °F 63% 30.08 in 10.0 mi NNW 4.6 mph - N/A   Clear
11:53 PM 27.0 °F - 15.1 °F 61% 30.09 in 10.0 mi Calm Calm - N/A   Scattered Clouds